Regional Weather Roundup
Issued by NWS

Home | Current Version | Previous Version | Text Only | Print | Product List | Glossary On
Versions: 1 2 3 4 5 6 7 8 9 10 11 12 13 14 15 16 17 18 19 20 21 22 23 24 25 26 27 28 29 30 31 32 33 34 35 36 37 38 39 40 41 42 43 44 45 46 47 48 49 50
000
ASUS43 KDMX 060907
RWRIA

WEATHER ROUNDUP FOR IOWA
NATIONAL WEATHER SERVICE DES MOINES IA
300 AM CST FRI MAR 06 2015

NOTE: "FAIR" INDICATES FEW OR NO CLOUDS BELOW 12,000 FEET WITH NO
SIGNIFICANT WEATHER AND/OR OBSTRUCTIONS TO VISIBILITY.

* - THESE STATIONS ARE NOT NWS STATIONS...THUS NOT UNDER NWS
QUALITY CONTROL.  THEY ALSO DO NOT REPORT WEATHER SUCH
AS PRECIPITATION OR FOG.

IAZ001>003-012>014-020>022-031>034-043>046-061000-
   NORTHWEST IOWA

CITY           SKY/WX    TMP DP  RH WIND       PRES   REMARKS
CARROLL *      CLOUDY    23  12  63 S14       30.20F WCI  11
CHEROKEE *     CLEAR     18   9  68 S7        30.16F WCI   8
DENISON *      PTCLDY    23  10  58 S15       30.17F WCI  10
LE MARS *      CLEAR     21  10  63 S8        30.16F WCI  12
ORANGE CITY *  CLEAR     19  10  68 CALM      30.13F
SHELDON *      CLEAR     18   9  68 S7        30.12F WCI   8
SIOUX CITY     CLEAR     23  10  57 S8        30.17F WCI  14
SPENCER        CLEAR     15   6  67 S8        30.15F WCI   4
STORM LAKE *   CLEAR     19  10  68 S16       30.16F WCI   5
$$

IAZ055>058-069>071-079>083-090>094-061000-
   SOUTHWEST IOWA

CITY           SKY/WX    TMP DP  RH WIND       PRES   REMARKS
ATLANTIC *     CLOUDY    25  10  54 S15G22    30.23F WCI  12
AUDUBON *      MOCLDY    25  10  54 S16G25    30.21F WCI  12
CLARINDA *     CLOUDY    23  12  63 S12G17    30.29F WCI  12
COUNCIL BLFS * CLEAR     27  14  59 S14       30.20F WCI  15
CRESTON *      CLOUDY    21  10  63 S17       30.28F WCI   7
HARLAN  *      PTCLDY    23  12  63 S15       30.24F WCI  10
LAMONI         PTCLDY    19   9  65 S12       30.32F WCI   7
RED OAK *      PTCLDY    23  12  63 S10       30.25F WCI  12
SHENANDOAH *   PTCLDY    25  14  63 S14G22    30.27F WCI  13
$$

IAZ047>049-059>061-072>074-084-061000-
   CENTRAL IOWA

CITY           SKY/WX    TMP DP  RH WIND       PRES   REMARKS
AMES           CLOUDY    13   6  74 S9        30.28F WCI   1
ANKENY *       CLOUDY    18   7  62 S9        30.30F WCI   6
CHARITON *     CLOUDY    19   9  63 S17       30.33F WCI   4
DES MOINES     MOCLDY    20   8  60 S13       30.30F WCI   7
GRINNELL*      PTCLDY    10   5  79 SE13      30.33F WCI  -5
KNOXVILLE *    CLOUDY    18   7  62 S12       30.33F WCI   5
MARSHALLTOWN   CLOUDY     9   2  73 S12       30.30F WCI  -6
PELLA *        CLEAR     14  10  85 S8        30.36F WCI   3
PERRY *          N/A     21  12  68 S12       30.25F WCI   9
$$

IAZ004>006-015-016-023>025-035-036-061000-
   NORTH CENTRAL IOWA

CITY           SKY/WX    TMP DP  RH WIND       PRES   REMARKS
ALGONA *       CLOUDY    16  16 100 S21       30.17F WCI  -2
CLARION *      CLOUDY    14   7  73 S17G24    30.22F WCI  -3
ESTHERVILLE    CLEAR     12   5  73 S14       30.14F WCI  -3
FORT DODGE *   CLOUDY    18   5  57 S10G21    30.21F WCI   6
MASON CITY     CLOUDY     4  -2  76 S13       30.23F WCI -13
FOREST CITY *  PTCLDY    12   1  62 SE9       30.20F WCI   0
IOWA FALLS *   CLOUDY    10   3  72 S15       30.27F WCI  -6
$$

IAZ007>011-017>019-026>030-037>042-050>054-066-061000-
   NORTHEAST IOWA

CITY           SKY/WX    TMP DP  RH WIND       PRES   REMARKS
CEDAR RAPIDS   PTCLDY     5  -1  76 S8        30.37F WCI  -8
CHARLES CITY * CLEAR      3  -4  72 S14       30.28F WCI -15
CLINTON *      MOCLDY     1  -6  71 SE6       30.46F WCI -10
DECORAH *      CLEAR      5  -4  66 S10       30.29F WCI -10
DUBUQUE        MOCLDY    -2  -7  79 S12       30.36F WCI -20
MONTICELLO *   CLEAR      1  -6  71 SE5       30.40F WCI  -8
OELWEIN *      CLEAR      1  -6  71 S13       30.33F WCI -16
WATERLOO       CLEAR      5  -2  72 S10       30.33F WCI -10
$$

IAZ064-065-067-068-078-061000-
   EAST CENTRAL IOWA

CITY           SKY/WX    TMP DP  RH WIND       PRES   REMARKS
DAVENPORT      MOCLDY     3  -5  69 S8        30.44F WCI -10
IOWA CITY      PTCLDY     3  -2  79 SE5       30.43F WCI  -6
MT. PLEASANT * CLEAR      7   0  72 S8        30.44S WCI  -6
MUSCATINE *    CLEAR      5   0  78 CALM      30.47F
QUAD CITIES    PTCLDY     5  -3  69 S5        30.46F WCI  -4
$$

IAZ062-063-075>077-085>089-095>099-061000-
   SOUTHEAST IOWA

CITY           SKY/WX    TMP DP  RH WIND       PRES   REMARKS
BURLINGTON     PTCLDY     7   0  73 S8        30.44F WCI  -6
FAIRFIELD *    CLEAR     10   1  67 S13       30.41F WCI  -5
FORT MADISON * CLEAR      9   1  72 S12       30.45F WCI  -6
KEOKUK *       CLEAR     10   3  72 S6        30.45F WCI   1
OSKALOOSA *    MOCLDY    10   7  85 S10       30.38F WCI  -3
CENTERVILLE *  MOCLDY    16   9  73 S10       30.38F WCI   3
OTTUMWA        PTCLDY    12   5  73 S12       30.38F WCI  -2
WASHINGTON *   PTCLDY    10   5  79 S10       30.42F WCI  -3
$$

ABBREVIATIONS USED IN REMARKS
   TC - TEMPERATURES IN CELSIUS
  WCI - WIND CHILL INDEX
   HX - HEAT INDEX
  VSB - VISIBILITY
$$



USA.gov is the U.S. government's official web portal to all federal, state and local government web resources and services.